MDT,Max TemperatureF,Mean TemperatureF,Min TemperatureF,Max Dew PointF,MeanDew PointF,Min DewpointF,Max Humidity, Mean Humidity, Min Humidity, Max Sea Level PressureIn, Mean Sea Level PressureIn, Min Sea Level PressureIn, Max VisibilityMiles, Mean VisibilityMiles, Min VisibilityMiles, Max Wind SpeedMPH, Mean Wind SpeedMPH, Max Gust SpeedMPH,PrecipitationIn, CloudCover, Events, WindDirDegrees
2012-8-1,81,67,52,54,46,38,83,53,23,30.29,29.98,29.90,10,10,10,33,13,43,T,3,Rain-Thunderstorm,211
2012-8-2,86,69,52,47,35,23,77,44,10,30.25,29.91,29.74,10,10,10,24,11,31,0.00,0,,235
2012-8-3,86,68,49,44,31,17,71,40,8,30.12,29.77,29.70,10,10,10,31,15,41,0.00,0,,252
2012-8-4,78,63,47,44,38,27,77,47,16,30.32,30.05,29.93,10,10,10,23,9,29,0.00,2,,116
2012-8-5,88,67,45,42,36,29,76,44,12,30.11,30.04,29.98,10,10,10,21,7,24,0.00,0,,178
2012-8-6,85,68,51,51,40,33,72,45,18,30.45,30.09,29.99,10,10,4,30,8,41,0.05,2,Rain-Thunderstorm,217
2012-8-7,84,67,49,47,35,17,77,43,8,30.41,30.09,30.04,10,10,10,25,9,32,T,1,,16
2012-8-8,87,66,45,30,27,22,50,30,10,30.16,30.09,30.03,10,10,10,21,7,33,0.00,0,,143
2012-8-9,89,72,54,44,36,23,55,32,9,30.06,30.00,29.93,10,10,10,21,9,26,0.00,1,,163
2012-8-10,87,70,52,48,41,34,66,41,16,30.34,29.95,29.84,10,10,10,31,10,39,T,2,Rain,176
2012-8-11,76,62,48,54,46,42,77,55,33,30.27,30.02,29.80,10,10,6,39,14,48,0.12,4,Rain-Thunderstorm,290
2012-8-12,80,61,42,43,37,30,96,57,17,30.17,30.09,30.02,10,10,10,22,8,28,0.00,0,,131
2012-8-13,79,64,49,52,41,36,83,54,24,30.27,30.01,29.90,10,10,2,28,12,32,0.11,2,Rain-Thunderstorm,217
2012-8-14,82,64,45,46,37,22,92,52,11,29.98,29.89,29.81,10,9,4,20,8,26,0.00,0,,217
2012-8-15,86,69,51,45,37,22,66,38,10,30.33,29.88,29.76,10,10,6,25,13,32,0.00,1,,188
2012-8-16,69,58,47,45,43,42,86,64,42,30.32,30.06,29.96,10,10,10,26,18,31,0.00,2,,138
2012-8-17,82,62,41,43,40,34,93,56,18,30.27,29.98,29.88,10,10,8,21,8,28,T,0,,97
2012-8-18,76,60,44,46,34,23,83,49,14,30.30,30.04,29.93,10,10,10,22,7,31,T,1,Rain-Thunderstorm,21
2012-8-19,79,60,41,33,26,14,53,31,9,30.28,29.98,29.87,10,10,10,17,9,26,0.00,0,,137
2012-8-20,77,62,47,43,36,30,66,44,21,30.23,29.92,29.84,10,10,10,28,10,31,T,2,Rain,210
2012-8-21,82,62,41,41,35,24,83,49,15,30.05,29.96,29.83,10,10,10,17,8,23,0.00,1,,166
2012-8-22,81,64,47,50,38,32,61,41,20,29.88,29.84,29.80,10,10,6,24,11,31,0.03,3,Rain,226
2012-8-23,78,66,54,53,48,42,93,62,31,29.90,29.83,29.77,10,10,10,21,10,24,0.01,3,Rain,168
2012-8-24,84,65,46,46,35,24,86,50,13,30.06,29.77,29.69,10,10,10,36,10,45,0.00,0,,278
2012-8-25,82,62,42,42,27,12,49,29,8,29.95,29.85,29.73,10,10,10,20,10,25,0.00,0,,131
2012-8-26,83,63,43,22,18,11,22,15,7,30.32,29.99,29.85,10,10,10,15,8,20,0.00,1,,144
2012-8-27,85,66,46,45,35,22,57,37,17,30.42,30.13,29.98,10,10,10,26,8,35,T,2,Thunderstorm,187
2012-8-28,84,68,52,48,43,39,68,47,25,30.38,30.11,29.95,10,10,10,33,9,40,T,2,Rain-Thunderstorm,145
2012-8-29,87,70,52,47,43,38,66,43,19,30.20,29.90,29.81,10,10,10,30,9,38,0.01,2,Rain-Thunderstorm,183
2012-8-30,78,64,50,53,44,38,67,46,25,30.25,29.93,29.83,10,10,10,30,8,35,0.01,3,Rain,158
2012-8-31,84,64,43,46,41,34,92,55,18,30.22,29.97,29.86,10,10,10,31,10,40,T,3,Rain,196